This is the latest recevied weather packets stored in our database for station/object SR9WXM. If no packets are shown the sender has not sent any weather packets the latest 1 day(s).
| Time | Temp. | Humidity | Pressure | Rain* | Wind** | Luminosity | Snow |
|---|---|---|---|---|---|---|---|
| 1778006853 | 14.44° C | 100% | 0 hPa | - | 4.47 m/s, 207° | - | - |
| 1778006612 | 14.44° C | 100% | 0 hPa | - | 4.47 m/s, 200° | - | - |
| 1778006372 | 15° C | 100% | 0 hPa | - | 4.47 m/s, 197° | - | - |
| 1778006131 | 14.44° C | 100% | 0 hPa | - | 4.02 m/s, 208° | - | - |
| 1778005891 | 15° C | 100% | 0 hPa | - | 4.92 m/s, 209° | - | - |
| 1778005651 | 15° C | 100% | 0 hPa | - | 4.02 m/s, 197° | - | - |
| 1778005409 | 15° C | 100% | 0 hPa | - | 4.92 m/s, 203° | - | - |
| 1778005169 | 15° C | 100% | 0 hPa | - | 4.47 m/s, 203° | - | - |
| 1778004929 | 15° C | 100% | 0 hPa | - | 5.36 m/s, 192° | - | - |
| 1778004689 | 15.56° C | 100% | 0 hPa | - | 5.81 m/s, 177° | - | - |
| 1778004449 | 15.56° C | 100% | 0 hPa | - | 5.81 m/s, 192° | - | - |
| 1778004207 | 15.56° C | 100% | 0 hPa | - | 7.6 m/s, 186° | - | - |
| 1778003967 | 15.56° C | 100% | 0 hPa | - | 7.15 m/s, 190° | - | - |
| 1778003726 | 15.56° C | 100% | 0 hPa | - | 6.71 m/s, 185° | - | - |
| 1778003486 | 15.56° C | 100% | 0 hPa | - | 7.6 m/s, 167° | - | - |
| 1778003246 | 16.11° C | 100% | 0 hPa | - | 7.15 m/s, 202° | - | - |
| 1778003005 | 16.11° C | 100% | 0 hPa | - | 7.15 m/s, 190° | - | - |
| 1778002765 | 16.11° C | 100% | 0 hPa | - | 5.81 m/s, 192° | - | - |
| 1778002525 | 16.11° C | 100% | 0 hPa | - | 6.26 m/s, 179° | - | - |
| 1778002285 | 16.11° C | 100% | 0 hPa | - | 5.81 m/s, 199° | - | - |
| 1778002045 | 16.67° C | 100% | 0 hPa | - | 6.71 m/s, 197° | - | - |
| 1778001803 | 16.67° C | 100% | 0 hPa | - | 5.81 m/s, 192° | - | - |
| 1778001563 | 16.67° C | 100% | 0 hPa | - | 6.26 m/s, 209° | - | - |
| 1778001322 | 16.67° C | 100% | 0 hPa | - | 6.26 m/s, 200° | - | - |
| 1778001082 | 16.67° C | 100% | 0 hPa | - | 6.26 m/s, 192° | - | - |
* Rain since midnight (hover to see other rain measurements)
** Current wind speed in m/s (hover to see current wind gust speed)